Change the Weather History Date:

Sunday, July 14, 2013

  Actual Average Record
Temperature  
Mean Temperature 56 °F -  
Max Temperature 62 °F - - ()
Min Temperature 52 °F - - ()
Degree Days  
Heating Degree Days 8    
Growing Degree Days 6 (Base 50)    
Moisture  
Dew Point 50 °F    
Average Humidity 82    
Maximum Humidity 93    
Minimum Humidity 67    
Precipitation  
Precipitation 0.00 in - - ()
Sea Level Pressure  
Sea Level Pressure 30.31 in    
Wind  
Wind Speed 9 mph (East)    
Max Wind Speed 12 mph    
Max Gust Speed 18 mph    
Visibility 10 miles    
Events      
T = Trace of Precipitation, MM = Missing Value Source: NWS Daily Summary

Daily Weather History Graph

Daily Weather History Graph

Search for Another Location

Airport or City:

Trip Planner

Search our weather history database for the weather conditions in past years. The results will help you decide how hot, cold, wet, or windy it might be!

Date:

Astronomy

Jul. 14, 2013 Rise Set
Actual Time 4:50 AM AKDT 11:10 PM AKDT
Civil Twilight 3:21 AM AKDT 12:37 AM AKDT
Nautical Twilight Sun does not rise Sun does not rise
Astronomical Twilight Sun does not rise Sun does not rise
Moon 1:29 PM AKDT (7/14) No Moon Set
Length of Visible Light 21h 15m
Length of Day
18h 20m
Waxing Crescent, 36% of the Moon is Illuminated
Jul 14
Waxing Crescent
Jul 15
First Quarter
Jul 22
Full
Jul 29
Last Quarter
Aug 6
New

Hourly Weather History & Observations

Time (AKDT) Temp. Dew Point Humidity Pressure Visibility Wind Dir Wind Speed Gust Speed Precip Events Conditions
12:53 AM 53.1 °F 50.0 °F 89% 30.26 in 10.0 mi East 11.5 mph - N/A   Overcast
1:53 AM 53.1 °F 50.0 °F 89% 30.28 in 10.0 mi ENE 9.2 mph - N/A   Overcast
2:27 AM 53.1 °F 50.0 °F 89% 30.28 in 10.0 mi East 8.1 mph - N/A   Overcast
2:53 AM 54.0 °F 51.1 °F 90% 30.28 in 10.0 mi East 9.2 mph - N/A   Overcast
3:53 AM 53.1 °F 51.1 °F 93% 30.30 in 10.0 mi East 9.2 mph - N/A   Overcast
4:53 AM 52.0 °F 50.0 °F 93% 30.31 in 10.0 mi East 10.4 mph - N/A   Overcast
5:53 AM 53.1 °F 50.0 °F 89% 30.31 in 10.0 mi East 8.1 mph - N/A   Overcast
6:38 AM 53.1 °F 50.0 °F 89% 30.31 in 10.0 mi East 8.1 mph - N/A   Overcast
6:46 AM 53.1 °F 50.0 °F 89% 30.31 in 10.0 mi East 6.9 mph - N/A   Overcast
6:53 AM 53.1 °F 50.0 °F 89% 30.32 in 10.0 mi East 9.2 mph - N/A   Overcast
7:53 AM 52.0 °F 50.0 °F 93% 30.32 in 10.0 mi East 8.1 mph - N/A   Overcast
8:44 AM 52.0 °F 48.9 °F 89% 30.32 in 10.0 mi ESE 8.1 mph - N/A   Mostly Cloudy
8:53 AM 52.0 °F 48.9 °F 89% 30.32 in 10.0 mi ESE 5.8 mph - N/A   Mostly Cloudy
9:53 AM 55.0 °F 50.0 °F 83% 30.32 in 10.0 mi East 9.2 mph - N/A   Mostly Cloudy
10:53 AM 55.9 °F 51.1 °F 84% 30.32 in 10.0 mi East 8.1 mph - N/A   Mostly Cloudy
11:53 AM 57.0 °F 51.1 °F 81% 30.32 in 10.0 mi ESE 10.4 mph - N/A   Overcast
12:53 PM 57.9 °F 51.1 °F 78% 30.33 in 10.0 mi Variable 6.9 mph - N/A   Overcast
1:53 PM 59.0 °F 51.1 °F 75% 30.33 in 10.0 mi ESE 9.2 mph - N/A   Overcast
2:53 PM 57.9 °F 50.0 °F 75% 30.32 in 10.0 mi East 8.1 mph - N/A   Overcast
3:53 PM 59.0 °F 50.0 °F 72% 30.31 in 10.0 mi ESE 10.4 mph - N/A   Overcast
4:53 PM 61.0 °F 51.1 °F 70% 30.31 in 10.0 mi ESE 9.2 mph - N/A   Overcast
5:53 PM 60.1 °F 50.0 °F 69% 30.30 in 10.0 mi East 10.4 mph 17.3 mph N/A   Overcast
6:53 PM 61.0 °F 50.0 °F 67% 30.30 in 10.0 mi ESE 10.4 mph - N/A   Partly Cloudy
7:53 PM 61.0 °F 51.1 °F 70% 30.29 in 10.0 mi ESE 8.1 mph 18.4 mph N/A   Clear
8:53 PM 59.0 °F 50.0 °F 72% 30.30 in 9.0 mi ESE 9.2 mph 17.3 mph N/A   Scattered Clouds
9:53 PM 57.0 °F 48.9 °F 74% 30.31 in 10.0 mi East 6.9 mph - N/A   Overcast
10:53 PM 55.0 °F 48.9 °F 80% 30.31 in 10.0 mi East 8.1 mph - N/A   Mostly Cloudy
11:53 PM 53.1 °F 48.0 °F 83% 30.32 in 10.0 mi Variable 4.6 mph - N/A   Partly Cloudy